AirNav   Duncan Aviation - Near you to keep you flying
 
 342 users online  

D42 Springfield Municipal Airport
Springfield, Minnesota, USA

GOING TO SPRINGFIELD?


FAA INFORMATION EFFECTIVE 09 SEPTEMBER 2021

Location

FAA Identifier: D42
Lat/Long: 44-13-51.8000N 094-59-56.1000W
44-13.863333N 094-59.935000W
44.2310556,-94.9989167
(estimated)
Elevation: 1073 ft. / 327.1 m (surveyed)
Variation: 02E (2015)
From city: 1 mile SW of SPRINGFIELD, MN
Time zone: UTC -5 (UTC -6 during Standard Time)
Zip code: 56087

Airport Operations

Airport use: Open to the public
Control tower: no
ARTCC: MINNEAPOLIS CENTER
FSS: PRINCETON FLIGHT SERVICE STATION
NOTAMs facility: PNM (NOTAM-D service available)
Attendance: UNATNDD
FOR SVC CALL 507-723-3500.
Wind indicator: lighted
Segmented circle: no
Lights: MIRL SS-SR, ACTVT MIRL RWY 13/31, REIL RWY 13/31, AND PAPI RWY 13/31 - CTAF.
Beacon: white-green (lighted land airport)
Operates sunset to sunrise.

Airport Communications

CTAF/UNICOM: 122.8
WX ASOS at RWF (19 nm N): 126.575 (507-644-3564)
WX AWOS-3 at MWM (20 nm S): 118.525 (507-831-1833)
  • APCH/DEP SVC PRVDD BY MINNEAPOLIS ARTCC ON FREQS 127.1/290.2 (REDWOOD FALLS RCAG).

Nearby radio navigation aids

VOR radial/distance  VOR name  Freq  Var
RWFr152/15.2REDWOOD FALLS VOR/DME113.3007E
MMLr105/37.8MARSHALL VOR/DME111.0005E

Airport Services

Fuel available: 100LL
100LL:SELF SERVE FUEL AVBL WITH CREDIT CARD 24 HRS.
Parking: hangars and tiedowns
Airframe service: NONE
Powerplant service: NONE
Bottled oxygen: NONE
Bulk oxygen: NONE

Runway Information

Runway 13/31

Dimensions: 3402 x 75 ft. / 1037 x 23 m
Surface: asphalt, in good condition
Weight bearing capacity: 
Single wheel: 12.0
Runway edge lights: medium intensity
NO CAUTION ZONE LIGHTING PRESENT FOR LAST HALF OF RWY IN BOTH DIRECTIONS
RUNWAY 13  RUNWAY 31
Latitude: 44-14.050798N44-13.676655N
Longitude: 095-00.225210W094-59.645990W
Elevation: 1070.5 ft.1067.4 ft.
Traffic pattern: rightleft
Runway heading: 130 magnetic, 132 true310 magnetic, 312 true
Markings: nonprecision, in good conditionnonprecision, in good condition
Visual slope indicator: 2-light PAPI on left (3.00 degrees glide path)2-light PAPI on left (3.00 degrees glide path)
Runway end identifier lights: yesyes
Touchdown point: yes, no lightsyes, no lights
Obstructions: none
RWY 13 HAS 6 FT CROPS 85 FT FM THE RWY END AND 119 FT RIGHT.
19 ft. trees, 351 ft. from runway, 222 ft. left of centerline, 7:1 slope to clear

Airport Ownership and Management from official FAA records

Ownership: Publicly-owned
Owner: CITY OF SPRINGFIELD
2 E CENTRAL ST
SPRINGFIELD, MN 56087
Phone 507-723-3500
Manager: JOE STREMCHA
2 E CENTRAL ST
SPRINGFIELD, MN 56087
Phone 507-723-3500

Airport Operational Statistics

Aircraft based on the field: 3
Single engine airplanes: 3
    
Aircraft operations: avg 46/week *
83% local general aviation
17% transient general aviation
* for 12-month period ending 30 April 2017

Additional Remarks

ULTRALIGHT TRAFFIC ON & INVOF ARPT.
FOR CD CTC MINNEAPOLIS ARTCC AT 651-463-5588.

Instrument Procedures

NOTE: All procedures below are presented as PDF files. If you need a reader for these files, you should download the free Adobe Reader.

NOT FOR NAVIGATION. Please procure official charts for flight.
FAA instrument procedures published for use from 09 September 2021 at 0901Z to 07 October 2021 at 0900Z.

 
IAPs - Instrument Approach Procedures
RNAV (GPS) RWY 13   download (208KB)
RNAV (GPS) RWY 31   download (190KB)
VOR RWY 13   download (185KB)
NOTE: Special Take-Off Minimums/Departure Procedures apply   download (152KB)

Other nearby airports with instrument procedures:

KRWF - Redwood Falls Municipal Airport (19 nm N)
KMWM - Windom Municipal Airport (20 nm S)
KULM - New Ulm Municipal Airport (22 nm E)
KJYG - St James Municipal Airport (24 nm SE)
KTKC - Tracy Municipal Airport (26 nm W)
 
Loc | Ops | Rwys | IFR | FBO | Links
Com | Nav | Svcs | Stats | Notes
Area around D42 (Springfield Municipal Airport)
 
Road maps at: MapQuest Bing Google
 
Aerial photo
WARNING: Photo may not be current or correct
Aerial photo of D42 (Springfield Municipal Airport)
Photo by Mark Griffith
Photo taken 14-Jul-2011
at 3000 feet from a Piper Archer II. Looking north.

Do you have a better or more recent aerial photo of Springfield Municipal Airport that you would like to share? If so, please send us your photo.

 
Sectional chart

 
Airport distance calculator
Flying to Springfield Municipal Airport? Find the distance to fly.

From to D42

Sunrise and sunset
Times for 25-Sep-2021
 Local
(UTC-5)
 Zulu
(UTC)
Morning civil twilight06:4311:43
Sunrise07:1212:12
Sunset19:1200:12
Evening civil twilight19:4100:41

Current date and time
Zulu (UTC)  25-Sep-2021 08:53:00
Local (UTC-5)  25-Sep-2021 03:53:00
 
METAR
KRWF 
19nm N 
250753Z AUTO 28008KT 10SM CLR 07/02 A2999 RMK AO2 SLP157 T00720017
KMWM 
20nm S 
250715Z AUTO 25006KT 10SM CLR 04/01 A3003 RMK AO2
KULM 
22nm E 
250835Z AUTO 24005KT 10SM CLR 05/00 A2999 RMK AO2
KJYG 
24nm SE 
250835Z AUTO 24005KT 10SM CLR 05/02 A3001 RMK AO2 TSNO
KOVL 
33nm N 
250835Z AUTO 00000KT 10SM CLR 04/01 A2997 RMK AO2
KMJQ 
36nm S 
250835Z AUTO 26007KT 10SM SCT110 06/01 A3005 RMK AO2 PWINO
KDVP 
37nm SW 
250833Z AUTO 25009G14KT 10SM CLR 08/00 A3005 RMK AO2 T00800000
KMML 
37nm W 
250756Z AUTO 25010KT 10SM CLR 08/01 A3002 RMK AO2 SLP169 T00830011
TAF
KRWF 
19nm N 
250520Z 2506/2606 28006KT P6SM SKC FM251600 28012G21KT P6SM FEW250 FM252200 27009KT P6SM FEW250
NOTAMs
Click for the latest NOTAMs
NOTAMs are issued by the DoD/FAA and will open in a separate window not controlled by AirNav.

 

 
 

FBO, Fuel Providers, and Aircraft Ground Support

  
 Business Name 
 
 Contact 
 
 Services / Description 
 
Fuel Prices
 
Comments
  
Springfield Municipal Airport 507-723-3512
no information available

If you are affiliated with Springfield Municipal Airport and would like to show here your services, contact info, web link, logo, and more, click here
100LL
SS $4.44 
 Updated 05-Jul-2021
 
   write
SS=Self service
Update Fuel Prices
 

Would you like to see your business listed on this page?

 If your business provides an interesting product or service to pilots, flight crews, aircraft, or users of the Springfield Municipal Airport, you should consider listing it here.  To start the listing process, click on the button below
 
Add a business
 

Other Pages about Springfield Municipal Airport

Update a link
 
Copyright © AirNav, LLC. All rights reserved. Privacy Policy  Contact